COSMOS 1275 DEB, 17618

Orbit data source: Space-Track

COSMOS 1275 DEB, 17618 is space debris in LEO originally from a launch on Thu, 04 Jun 1981 UTC launched from the Plesetsk Missile And Space Complex (PKMTR). Debris objects in space refer to the collection of defunct objects orbiting the Earth. Examples of debris include non-operational satellites, rocket bodies, and fragments generated from explosions, collisions, or faulty payload assembly.

Loading next visibility...
Identifier
17618, 1981-053KM
Orbit
LEO
Country
Flag of CISCIS
Related business
Manufacturer
Unknown
Mission
Spacecraft
Bus & Motor
Unknown
Mass
Unknown
Launch date (UTC)
1981-06-04 (45 years ago)
Launch vehicle
Unknown
Launch site
Plesetsk Missile And Space Complex (PKMTR)
Object type
Payload
Rocket body
Debris
Shape & HBR
Unknown shape, 0.1 m
Radar Cross Section
Medium (>0.1 m² and <1 m²)

Expand to show TLE details & history
Last TLE update: 1 day ago

TLE from 1 day ago
0 COSMOS 1275 DEB
1 17618U 81053KM  26262.23236293  .00001443  00000-0  75230-3 0  9990
2 17618  82.8438  64.4006 0047091 264.1661 213.9569 14.13391393107285
Epoch: 2026-09-19T05:34Z
TLE epoch observation values (Epoch: 2026-09-19T05:34:36.157Z)
Latitude
61.43555°
Longitude
149.34377°
Altitude
886.585 km
Speed
7.4 km/s
True Right ascension
15h 24m 33s
True Declination
61° 17' 36"
Sunlit
Object was in daylight at epoch
Visualization orbit readout
Latitude
Unknown
Longitude
Unknown
Altitude
Unknown
Speed
Unknown
Apparent Right ascension
Unknown
Apparent Declination
Unknown
Sunlit
N/A
Visualization observer readout
Local Sidereal Time
04:30:18
Azimuth
Unknown
Elevation
Unknown
Doppler factor
Unknown
Orbital elements
Apogee altitude
878.903 km
Perigee altitude
810.875 km
Semi-major axis
7,223.026 km
Eccentricity
0.00471
Inclination
82.8438°
RAAN
64.4006°
Arg. of periapsis
264.1661°
True anomaly
213.65695°
Mean anomaly
213.9569°
Eccentric anomaly
213.80678°
Mean motion
3.53561 °/min
Orbital period
101.82 mins
BSTAR
0.0007523
Loading maneuver chart data...
Computing Atmospheric mass density...

Documentation

Showing up to 5 results
|